432  
ASUS41 KOKX 010805  
RWROKX  
 
REGIONAL WEATHER ROUNDUP  
NATIONAL WEATHER SERVICE NEW YORK NY  
400 AM EDT SAT NOV 01 2014  
 
NOTE: "FAIR" INDICATES FEW OR NO CLOUDS BELOW 12,000 FEET WITH NO  
SIGNIFICANT WEATHER AND/OR S TO VISIBILITY
.  
 
NYZ071-072-176-178-NJZ106-104-010900-  
NEW YORK CITY METRO AREA  
 
 
CITY SKY/WX TMP DP RH WIND PRES REMARKS
 
CENTRAL PARK CLOUDY 47 40 76 NE8 29.84F  
LAGUARDIA APRT CLOUDY 48 41 76 NE15G24 29.82F  
KENNEDY INTL CLOUDY 49 41 74 NE24G31 29.81F  
NEWARK/LIBERTY LGT RAIN 46 43 89 N17 29.82F  
BRNX BOT. GARD N/A 46 39 76 N13 29.84S  
TETERBORO CLOUDY 47 40 76 VRB7 29.82F  

 
 
NYZ177-179-078>081-010900-  
LONG ISLAND NEW YORK  
 
CITY SKY/WX TMP DP RH WIND PRES REMARKS
 
FARMINGDALE CLOUDY 49 41 74 NE14G23 29.81F  
ISLIP CLOUDY 49 39 68 NE15 29.80S  
SHIRLEY LGT RAIN 50 39 66 N9 29.82F  
WESTHAMPTON CLOUDY 50 39 66 NE17G23 29.82F  
MONTAUK POINT N/A 51 40 65 NE13G21 29.83F  

 
 
NYZ052-065-067-010900-  
HUDSON VALLEY  
 
CITY SKY/WX TMP DP RH WIND PRES REMARKS
 
WHITE PLAINS CLOUDY 45 37 73 N9G16 29.82F  
NEWBURGH NOT AVBL  
MONTGOMERY LGT RAIN 44 40 85 NE13 29.87F  
POUGHKEEPSIE LGT RAIN 45 41 86 N7 29.88F  
ALBANY MOCLDY 42 31 64 N9 29.95F  

 
 
NJZ001-105-106-008-010-013-015-019>022-104-010900-  
NEW JERSEY  
 
CITY SKY/WX TMP DP RH WIND PRES REMARKS
 
NEWARK/LIBERTY LGT RAIN 46 43 89 N17 29.82F  
TETERBORO CLOUDY 47 40 76 VRB7 29.82F  
CALDWELL CLOUDY 45 38 76 NE9 29.84S  
MORRISTOWN CLOUDY 46 41 81 NE7 29.83F  
SOMERVILLE CLOUDY 47 40 76 N10G20 29.80F  
SUSSEX CLOUDY 47 38 71 NE9G20 29.86S  
ANDOVER N/A 45 39 79 NE10G16 29.84S  
TRENTON LGT RAIN 47 41 80 NE15G24 29.78F  
MILLVILLE LGT RAIN 51 48 89 N13 29.71F  
ATLANTIC CITY LGT RAIN 51 49 92 N14G22 29.71R  
WRIGHTSTOWN RAIN 48 46 93 N12G24 29.73F  
TOMS RIVER CLOUDY 48 46 93 NE9 29.73F  
BELMAR CLOUDY 48 41 76 NE15G23 29.76F  

 
 
PAZ047>061-062-071-010900-  
EASTERN PENNSYLVANIA  
 
CITY SKY/WX TMP DP RH WIND PRES REMARKS
 
PHILADELPHIA CLOUDY 50 43 77 NE21G26 29.77S  
ALLENTOWN LGT RAIN 48 40 73 NE17G23 29.82S  
SCRANTON CLOUDY 47 38 71 NE10 29.84F  

 
 
CTZ002-004>006-009-010-012-RIZ004-006-007-MAZ004-011-015-010900-  
SOUTHERN NEW ENGLAND  
IN CT  
 
CITY SKY/WX TMP DP RH WIND PRES REMARKS
 
BRADLEY INTL CLOUDY 46 36 68 N13 29.89F  
HARTFORD CLOUDY 46 37 71 N8 29.88F  
DANBURY CLOUDY 44 36 73 NE12 29.86F  
WTRBRY/OXFORD CLOUDY 43 34 70 NE12G22 29.87F  
BRIDGEPORT CLOUDY 48 38 68 NE20G29 29.83F  
MERIDEN CLOUDY 45 37 73 N5 29.87F  
NEW HAVEN CLOUDY 48 39 71 N14 29.85F  
CHESTER NOT AVBL  
GROTON CLOUDY 48 37 65 NE15G25 29.82F  
WILLIMANTIC CLOUDY 46 35 65 NE16 29.87F  
 
IN RI  
 
CITY SKY/WX TMP DP RH WIND PRES REMARKS
 
PROVIDENCE CLOUDY 48 37 65 N15 29.87F  
BLOCK ISLAND CLOUDY 50 39 66 NE22G31 29.81F  
WESTERLY CLOUDY 49 37 63 N17G25 29.83F  
 
IN MA  
 
CITY SKY/WX TMP DP RH WIND PRES REMARKS
 
BOSTON CLOUDY 46 37 71 N14G23 29.92S  
WORCESTER CLOUDY 40 29 64 NE13 29.90F WCI 32  
WESTFIELD CLOUDY 45 36 70 N9 29.91F  
PROVINCETOWN CLOUDY 50 -2 11 N18G25 29.87F  
NANTUCKET CLOUDY 53 46 77 NE23G29 29.78F  

 
 
ANZ330-335-338-340-345-350-353-355-010900-  
COASTAL MARINE OBSERVATIONS  
 
 
STATION/POSITION TIME SKY/WX TEMP WIND PRES VSBY WAVE
 
AIR SEA DIR/SP/G HT/PER  
(UTC) (F) (DEG/KT/KT) (MB) (MI) (FT/S)  
NY HARB ENTRANCE 0800 52 61 30/ 27/ 33 1007.2 7/ 8  
4S FIRE IS 0800 62 N/A 8/ 8  
20S FIRE ISLAND 0800 56 62 50/ 29/ 35 1006.3 12/ 8  
23SW MTP 0800 N/A 8/ 7  
HUDSON CANYON 0800 59 64 60/ 25/ 31 1004.2 10/ 8  
EXECUTION ROCKS 0800 50 59 30/ 19/ 25 N/A  
WESTERN LI SOUND 0800 49 40/ 16/ 19 N/A 3/ 5  
CENTRAL LI SOUND 0700 51 61 50/ 21/ 25 N/A 3/ 4  
EASTERN LI SOUND 0700 51 60 50/ 19/ 27 N/A  
ROBBINS REEF 0800 49 30/ 17/ 22 1008.2  

 
 
>>>>>>>>>>>>>>>>>>>>>>>>>>>> KEY <<<<<<<<<<<<<<<<<<<<<<<<<<<  
> <  
> SKY/WX - SKY CONDITION/PRESENT WEATHER <  
> TMP - TEMPERATURE IN FAHRENHEIT <  
> DP - DEWPOINT IN FAHRENHEIT <  
> RH - RELATIVE HUMIDITY IN PERCENT <  
> WIND - DIRECTION AND SPEED IN MPH <  
> PRES - MEAN SEA LEVEL PRESSURE IN INCHES OF HG <  
> WCI - WIND CHILL INDEX <  
> VSB - VISIBILITY IN MILES <  
> HX - HEAT INDEX <  
> TC - TEMPERATURE IN CELSIUS <  
> VRB - VARIABLE WIND DIRECTION <  
> <  
>>>>>>>>>>>>>>>>>>>>>>>>>>>> KEY <<<<<<<<<<<<<<<<<<<<<<<<<<<  
 
CLICK HERE TO GO TO PREVIOUS BULLETINS.

The Nexlab NY Page
The Nexlab NJ Page
The Nexlab CT Page Main Text Page